[[{"header":{"parameterUnit":"m.s-1","parameterCategory":1,"la1":30.2991,"la2":30.254,"lo1":-89.0895,"lo2":-89.0444,"dy":0.0017,"dx":0.0017,"nx":28,"ny":28,"refTime":"2023-10-01T21:00:00:Z","depth":0,"parameterNumber":2,"parameterNumberName":"U-component_of_WINDS"},"data":[0,0,0,0,0,0,0,0,0,0,0,0,0,0,0,0,0,0,0,0,0,0,0,0,0,0,0,0,0,0,0,0,0,0,0,0,0,0,0,0,0,0,0,0,0,0,0,0,0,0,0,0,0,0,0,0,0,0,-5.5919,-5.5918,0,-5.5887,-5.5887,-5.5886,-5.5737,-5.5733,-5.5729,-5.5726,-5.5696,-5.5698,-5.5701,0,0,0,0,0,0,0,0,0,0,0,0,0,-5.5852,-5.5854,-5.5919,-5.5918,-5.5918,-5.5887,-5.5887,-5.5886,-5.5737,-5.5733,-5.5729,-5.5725,-5.5695,-5.5698,-5.5701,0,0,0,0,0,0,0,0,0,0,0,0,0,-5.5857,-5.5855,-5.5919,-5.584,-5.5832,-5.5887,-5.5887,-5.5886,-5.5738,-5.5733,-5.5727,-5.5722,-5.5694,-5.5698,-5.5701,-5.583,0,0,-5.5713,-5.5714,0,0,0,0,0,0,0,0,-5.5857,-5.586,-5.5852,-5.5845,-5.5837,-5.581,-5.5852,-5.5868,-5.5739,-5.5774,-5.5726,-5.572,-5.5738,-5.5738,-5.5744,-5.5829,-5.5828,-5.5713,-5.5715,-5.5717,-5.5718,0,0,0,0,0,0,0,-5.5857,-5.586,-5.5906,-5.5852,-5.5843,-5.5807,-5.5801,-5.5854,-5.5786,-5.577,-5.576,-5.5758,-5.5733,-5.5741,-5.5742,-5.5827,-5.5713,-5.5716,-5.5718,-5.572,-5.6018,-5.6024,0,0,0,0,0,0,-5.5867,-5.5861,-5.5907,-5.5905,-5.5834,-5.5812,-5.5806,-5.5824,-5.5785,-5.5774,-5.5762,-5.5751,-5.5737,-5.5738,-5.574,-5.589,-5.5717,-5.572,-5.5722,-5.6013,-5.602,-5.6026,0,0,0,0,0,0,-5.5866,-5.5873,-5.5908,-5.588,-5.5882,-5.5819,-5.584,-5.5826,-5.5833,-5.5779,-5.5766,-5.5782,-5.5733,-5.5735,-5.5809,-5.5887,-5.5722,-5.5725,-5.6006,-5.6015,-5.6023,-5.619,0,0,0,0,0,0,-5.5865,-5.5873,-5.5921,-5.5882,-5.5884,-5.5978,-5.5845,-5.583,-5.584,-5.5825,-5.5794,-5.5784,-5.5729,-5.5805,-5.5813,-5.5889,-5.5728,-5.5999,-5.601,-5.602,-5.6177,-5.6203,-5.6225,0,0,0,0,0,-5.5863,-5.5969,-5.5924,-5.5931,-5.5942,-5.5982,-5.5983,-5.5917,-5.5847,-5.5895,-5.586,-5.5785,-5.5877,-5.5813,-5.5822,-5.59,-5.5994,-5.6007,-5.6019,-5.6166,-5.6198,-5.6224,0,0,0,0,0,0,-5.6019,-5.5963,-5.5912,-5.6009,-5.6002,-5.5957,-5.6015,-5.5952,-5.5965,-5.595,-5.5868,-5.5862,-5.5949,-5.5931,-5.5862,-5.6023,-5.5923,-5.5938,-5.6032,-5.6061,-5.6085,-5.6087,-5.5731,0,0,0,0,0,-5.6065,-5.6102,-5.605,-5.6141,-5.614,-5.6079,-5.6094,-5.6043,-5.6032,-5.6029,-5.5999,-5.5993,-5.602,-5.6039,-5.6061,-5.6174,-5.6166,-5.6232,-5.6256,-5.6276,-5.629,-5.635,-5.6379,-5.6068,-5.6068,-5.6067,0,0,-5.616,-5.6133,-5.6161,-5.6172,-5.616,-5.6201,-5.6077,-5.6125,-5.6155,-5.6036,-5.6104,-5.6083,-5.607,-5.6165,-5.6205,-5.6153,-5.6374,-5.6292,-5.6308,-5.6312,-5.6366,-5.6395,-5.6422,-5.6076,-5.6075,-5.6073,0,0,-5.6353,-5.6336,-5.641,-5.6401,-5.6385,-5.6344,-5.6363,-5.6328,-5.6309,-5.6376,-5.6289,-5.6323,-5.6372,-5.6366,-5.637,-5.6564,-5.6496,-5.6573,-5.6699,-5.6758,-5.6783,-5.6804,-5.6874,-5.69,-5.6588,-5.6588,-5.6588,0,-5.6473,-5.653,-5.6456,-5.651,-5.6518,-5.6413,-5.6488,-5.6483,-5.6475,-5.6484,-5.6425,-5.6485,-5.6469,-5.6561,-5.6609,-5.6615,-5.6634,-5.6576,-5.6785,-5.6806,-5.6824,-5.6891,-5.6917,-5.6598,-5.6596,-5.6595,-5.6595,0,-5.6678,-5.672,-5.6781,-5.6777,-5.6791,-5.6856,-5.6793,-5.6817,-5.6766,-5.6732,-5.6803,-5.678,-5.6796,-5.6814,-5.6764,-5.69,-5.6869,-5.6799,-5.6696,-5.6865,-5.6926,-5.695,-5.6611,-5.6608,-5.6605,-5.6603,0,0,-5.6968,-5.6923,-5.6947,-5.6944,-5.692,-5.6951,-5.7011,-5.7027,-5.7049,-5.7048,-5.7098,-5.7142,-5.7078,-5.7083,-5.7032,-5.7084,-5.724,-5.7008,-5.7006,-5.7053,-5.739,-5.7443,-5.7474,-5.7195,-5.72,-5.7203,-5.7392,0,-5.7153,-5.7253,-5.719,-5.73,-5.7338,-5.724,-5.7292,-5.7284,-5.7254,-5.7283,-5.7249,-5.7282,-5.7195,-5.7197,-5.7244,-5.7211,-5.7307,-5.7197,-5.7241,-5.7244,-5.7248,-5.7505,-5.756,-5.7739,-5.7415,-5.7419,-5.7422,0,-5.7383,-5.7392,-5.7506,-5.7476,-5.7489,-5.7538,-5.7548,-5.7576,-5.7565,-5.754,-5.7546,-5.7482,-5.7541,-5.744,-5.752,-5.7446,-5.7461,-5.7448,-5.7453,-5.7455,-5.7343,-5.7515,-5.7795,-5.7822,-5.7458,-5.7455,-5.7452,0,-5.7584,-5.7625,-5.7699,-5.7699,-5.7665,-5.7702,-5.769,-5.7673,-5.7687,-5.7696,-5.7705,-5.7721,-5.773,-5.7745,-5.7688,-5.762,-5.7777,-5.767,-5.7758,-5.776,-5.7796,-5.7794,-5.8083,-5.7805,-5.7805,-5.7804,-5.7804,0,-5.7798,-5.7872,-5.7789,-5.7835,-5.7915,-5.7842,-5.7924,-5.7901,-5.7888,-5.7929,-5.7844,-5.7884,-5.7806,-5.7839,-5.7795,-5.7869,-5.7874,-5.7856,-5.7843,-5.7863,-5.7866,-5.7872,-5.7858,-5.7811,-5.781,-5.7808,-5.7807,0,-5.8036,-5.7983,-5.8057,-5.8019,-5.8012,-5.8073,-5.8041,-5.8082,-5.8047,-5.8099,-5.8107,-5.8053,-5.8087,-5.8031,-5.8059,-5.8029,-5.8132,-5.81,-5.8136,-5.8127,-5.8219,-5.8211,-5.8522,-5.8559,-5.8257,-5.826,-5.8262,0,-5.8176,-5.8231,-5.8199,-5.822,-5.8212,-5.8247,-5.8261,-5.8192,-5.821,-5.8203,-5.8246,-5.8272,-5.829,-5.835,-5.8313,-5.8334,-5.8302,-5.841,-5.8305,-5.8324,-5.8305,-5.8303,-5.8308,-5.8431,-5.8435,-5.8438,-5.844,0,-5.8431,-5.8402,-5.8425,-5.844,-5.846,-5.8468,-5.847,-5.8492,-5.842,-5.8445,-5.8478,-5.8492,-5.8521,-5.8549,-5.8562,-5.8549,-5.8484,-5.8474,-5.8495,-5.8517,-5.8536,-5.8528,-5.8196,-5.8467,-5.8464,-5.8462,-5.8461,-5.846,-5.8624,-5.8669,-5.8654,-5.8683,-5.8678,-5.8682,-5.872,-5.869,-5.8716,-5.8734,-5.8691,-5.8736,-5.8725,-5.8735,-5.873,-5.8765,-5.8717,-5.8749,-5.8757,-5.8766,-5.878,-5.853,-5.8767,-5.8766,-5.8765,-5.8764,-5.8764,0,-5.8875,-5.8861,-5.8888,-5.8895,-5.8918,-5.8854,-5.8854,-5.8878,-5.8918,-5.8913,-5.8933,-5.8972,-5.9,-5.8966,-5.8988,-5.9022,-5.8993,-5.903,-5.9027,-5.9026,-5.8821,-5.88,-5.9054,-5.9054,-5.9054,-5.9054,-5.9054,-5.9054,-5.9008,-5.9081,-5.9051,-5.9121,-5.9106,-5.9149,-5.9154,-5.9159,-5.9155,-5.9203,-5.9225,-5.9203,-5.9187,-5.9207,-5.923,-5.9219,-5.9232,-5.928,-5.926,-5.9069,-5.904,-5.9013,-5.8993,-5.9283,-5.9284,-5.9461,-5.9463,-5.9464]},{"header":{"parameterUnit":"m.s-1","parameterCategory":1,"la1":30.2991,"la2":30.254,"lo1":-89.0895,"lo2":-89.0444,"dy":0.0017,"dx":0.0017,"nx":28,"ny":28,"refTime":"2023-10-01T21:00:00:Z","depth":0,"parameterNumber":3,"parameterNumberName":"V-component_of_WINDS"},"data":[0,0,0,0,0,0,0,0,0,0,0,0,0,0,0,0,0,0,0,0,0,0,0,0,0,0,0,0,0,0,0,0,0,0,0,0,0,0,0,0,0,0,0,0,0,0,0,0,0,0,0,0,0,0,0,0,0,0,-0.0715,-0.0715,0,-0.0727,-0.0727,-0.0727,-0.0695,-0.0694,-0.0693,-0.0692,-0.0707,-0.0709,-0.071,0,0,0,0,0,0,0,0,0,0,0,0,0,-0.0667,-0.0668,-0.0715,-0.0715,-0.0715,-0.0727,-0.0727,-0.0727,-0.0695,-0.0694,-0.0693,-0.0692,-0.0707,-0.0709,-0.071,0,0,0,0,0,0,0,0,0,0,0,0,0,-0.0685,-0.0669,-0.0715,-0.0701,-0.07,-0.0727,-0.0727,-0.0727,-0.0695,-0.0694,-0.0692,-0.0691,-0.0706,-0.0708,-0.071,-0.0753,0,0,-0.0717,-0.0717,0,0,0,0,0,0,0,0,-0.0684,-0.0686,-0.0703,-0.0702,-0.0701,-0.0708,-0.0716,-0.0736,-0.0696,-0.0697,-0.0692,-0.069,-0.0709,-0.0711,-0.0716,-0.0753,-0.0754,-0.0717,-0.0718,-0.0719,-0.0719,0,0,0,0,0,0,0,-0.0683,-0.0686,-0.072,-0.0703,-0.0702,-0.0694,-0.0695,-0.0719,-0.0711,-0.0697,-0.0695,-0.0696,-0.0708,-0.0714,-0.0716,-0.0754,-0.0717,-0.0718,-0.072,-0.072,-0.0827,-0.0828,0,0,0,0,0,0,-0.0683,-0.0685,-0.0719,-0.072,-0.0688,-0.0697,-0.0697,-0.0707,-0.0711,-0.071,-0.0698,-0.0695,-0.0712,-0.0714,-0.0717,-0.0767,-0.0719,-0.0721,-0.0722,-0.0825,-0.0827,-0.0829,0,0,0,0,0,0,-0.0682,-0.0686,-0.0719,-0.0702,-0.0705,-0.0699,-0.071,-0.0708,-0.0714,-0.0711,-0.071,-0.0705,-0.0711,-0.0714,-0.0744,-0.0767,-0.0722,-0.0723,-0.0823,-0.0826,-0.0828,-0.0868,0,0,0,0,0,0,-0.0681,-0.0686,-0.0702,-0.0702,-0.0706,-0.0745,-0.0711,-0.0709,-0.0717,-0.0714,-0.0718,-0.0718,-0.071,-0.0741,-0.0746,-0.0769,-0.0725,-0.0821,-0.0824,-0.0827,-0.0865,-0.0872,-0.0878,0,0,0,0,0,-0.0679,-0.0714,-0.0703,-0.0707,-0.0726,-0.0747,-0.0749,-0.0738,-0.0719,-0.0736,-0.0733,-0.0718,-0.0763,-0.0744,-0.0749,-0.0774,-0.082,-0.0824,-0.0827,-0.0862,-0.0871,-0.0878,0,0,0,0,0,0,-0.0718,-0.0713,-0.0702,-0.0737,-0.0742,-0.0741,-0.0762,-0.0747,-0.0759,-0.0756,-0.0742,-0.0744,-0.0776,-0.0778,-0.0756,-0.0815,-0.0788,-0.0793,-0.0813,-0.0821,-0.0828,-0.0828,-0.0727,0,0,0,0,0,-0.073,-0.0746,-0.0742,-0.0774,-0.0777,-0.0769,-0.0777,-0.0768,-0.0774,-0.0776,-0.0776,-0.0783,-0.0799,-0.081,-0.0824,-0.0864,-0.0865,-0.0883,-0.089,-0.0895,-0.09,-0.0922,-0.093,-0.0841,-0.0841,-0.0841,0,0,-0.0756,-0.0756,-0.0767,-0.0781,-0.0784,-0.0803,-0.0771,-0.0792,-0.0805,-0.078,-0.0808,-0.0808,-0.0814,-0.085,-0.0865,-0.0852,-0.0925,-0.09,-0.0904,-0.0906,-0.0927,-0.0935,-0.0943,-0.0843,-0.0843,-0.0843,0,0,-0.0814,-0.0814,-0.0841,-0.0844,-0.0849,-0.0843,-0.0849,-0.085,-0.0848,-0.0876,-0.0857,-0.0873,-0.09,-0.0906,-0.0912,-0.097,-0.0956,-0.0974,-0.1009,-0.1031,-0.1038,-0.1044,-0.1066,-0.1074,-0.0979,-0.0979,-0.0979,0,-0.0847,-0.0872,-0.0857,-0.0879,-0.0886,-0.0861,-0.0889,-0.0892,-0.0902,-0.0908,-0.0892,-0.0925,-0.0928,-0.0964,-0.0978,-0.0983,-0.0991,-0.0975,-0.1037,-0.1044,-0.1049,-0.107,-0.1078,-0.0982,-0.0981,-0.0981,-0.0981,0,-0.0913,-0.0931,-0.0952,-0.096,-0.0969,-0.0994,-0.0983,-0.0994,-0.0983,-0.0979,-0.1007,-0.1009,-0.1023,-0.103,-0.1021,-0.1065,-0.1057,-0.1039,-0.1013,-0.106,-0.108,-0.1088,-0.0985,-0.0984,-0.0983,-0.0983,0,0,-0.0999,-0.0996,-0.1004,-0.1008,-0.1009,-0.1024,-0.1046,-0.1059,-0.1069,-0.1076,-0.1096,-0.1118,-0.1102,-0.1109,-0.1099,-0.1117,-0.1164,-0.1098,-0.1098,-0.1112,-0.1215,-0.1229,-0.1239,-0.1153,-0.1155,-0.1156,-0.1215,0,-0.1057,-0.1095,-0.1081,-0.1122,-0.1139,-0.1114,-0.1134,-0.1138,-0.1134,-0.1148,-0.1144,-0.116,-0.1136,-0.1141,-0.1157,-0.1155,-0.1185,-0.115,-0.1174,-0.1175,-0.1175,-0.1249,-0.1265,-0.132,-0.1222,-0.1223,-0.1224,0,-0.113,-0.1139,-0.118,-0.1178,-0.1185,-0.1203,-0.1213,-0.1227,-0.123,-0.1226,-0.1233,-0.1219,-0.1242,-0.1213,-0.1245,-0.1222,-0.123,-0.123,-0.1231,-0.1236,-0.1204,-0.1257,-0.1338,-0.1347,-0.1235,-0.1235,-0.1234,0,-0.1191,-0.1212,-0.1239,-0.1243,-0.1241,-0.1254,-0.1255,-0.1256,-0.1264,-0.1273,-0.1278,-0.129,-0.1297,-0.1306,-0.1296,-0.1276,-0.133,-0.13,-0.1329,-0.1329,-0.1344,-0.1344,-0.143,-0.1345,-0.1345,-0.1345,-0.1345,0,-0.1259,-0.1286,-0.1266,-0.1284,-0.1313,-0.1296,-0.1326,-0.1323,-0.1324,-0.1341,-0.132,-0.1337,-0.1321,-0.1336,-0.1327,-0.1356,-0.1359,-0.1357,-0.1355,-0.136,-0.1361,-0.1368,-0.1365,-0.1347,-0.1347,-0.1346,-0.1346,0,-0.1333,-0.132,-0.1349,-0.1344,-0.1343,-0.1366,-0.1362,-0.1378,-0.1371,-0.1392,-0.1397,-0.1387,-0.1403,-0.1392,-0.141,-0.1404,-0.1442,-0.1433,-0.1441,-0.1439,-0.1469,-0.1467,-0.1564,-0.1577,-0.1483,-0.1483,-0.1484,0,-0.1378,-0.1398,-0.1394,-0.1404,-0.1405,-0.142,-0.1427,-0.1411,-0.142,-0.1424,-0.144,-0.1454,-0.1465,-0.1492,-0.1488,-0.15,-0.1493,-0.1526,-0.1495,-0.15,-0.1496,-0.1496,-0.1499,-0.1534,-0.1535,-0.1536,-0.1536,0,-0.1461,-0.1453,-0.1465,-0.1474,-0.1483,-0.149,-0.1495,-0.1504,-0.1487,-0.1498,-0.1514,-0.1522,-0.1538,-0.1553,-0.1564,-0.1564,-0.1549,-0.1545,-0.1553,-0.156,-0.1565,-0.1564,-0.146,-0.1544,-0.1543,-0.1543,-0.1542,-0.1542,-0.1523,-0.154,-0.154,-0.1553,-0.1554,-0.1559,-0.1574,-0.1568,-0.1581,-0.1592,-0.1581,-0.1601,-0.1602,-0.1614,-0.1617,-0.1632,-0.1619,-0.163,-0.1633,-0.1636,-0.1641,-0.156,-0.1634,-0.1633,-0.1633,-0.1633,-0.1633,0,-0.1606,-0.1604,-0.1616,-0.1624,-0.1634,-0.1615,-0.1619,-0.163,-0.1647,-0.1649,-0.1659,-0.1678,-0.1691,-0.1686,-0.1699,-0.1712,-0.1705,-0.1716,-0.1716,-0.1717,-0.1652,-0.1645,-0.1721,-0.1721,-0.1721,-0.1721,-0.1721,-0.1721,-0.1651,-0.1678,-0.1671,-0.1698,-0.1696,-0.1714,-0.1718,-0.1723,-0.1724,-0.1745,-0.1756,-0.1752,-0.1751,-0.1763,-0.1775,-0.1773,-0.178,-0.1794,-0.179,-0.173,-0.1721,-0.1713,-0.1707,-0.1795,-0.1795,-0.1854,-0.1855,-0.1855]}]]